User: anonymous   Login
Location: Caltech
(34.1382°N, 118.1253°W)
Time: 04:05:48
(UTC-08:00)
Language:

Cosmos 1833 - Orbit

View from above orbital plane
View from above orbital plane
View from above satellite
View from above satellite

Ground track
Ground track

The orbit data is extracted from the following two-line orbital elements,

1 17589U 87027A   15027.98321073 -.00000244  00000-0 -10517-3 0  9193
2 17589 070.9174 215.5160 0012075 198.8460 323.4998 14.12857907437254
Epoch (UTC): 27 January 2015 23:35:49
Eccentricity: 0.0012075
inclination: 70.9174°
perigee height: 841 km
apogee height: 858 km
right ascension of ascending node: 215.5160°
argument of perigee: 198.8460°
revolutions per day: 14.12857907
mean anomaly at epoch: 323.4998°
orbit number at epoch: 43725

The dashed part of the orbit path shows where the satellite is in the earth's shadow,  

DLR